This demonstration page uses our WeatherBlox Daily Observations layout. Learn more.

Left ArrowRight Arrow

44.8408, -93.29828

Hourly Observations for September 17, 2021

Temp ( °F °C ) Dew Point ( °F °C ) Humidity (%) Winds ( mph kmh ) Pressure ( in mb ) Visibility ( mi km ) Precip ( " mm )
12:53 am 00:53 Mostly Cloudy 78 25.6 63 17.2 60 60 S 13 20 29.75 1008 10 16 0.00 0.00
1:53 am 01:53 Cloudy 78 25.6 63 17.2 60 60 SW 14 22 29.78 1009 10 16 0.00 0.00
2:53 am 02:53 Cloudy 76 24.4 63 17.2 64 64 SSW 13 20 29.80 1009 10 16 0.00 0.00
3:09 am 03:09 Cloudy with Thunderstorms 76 24.4 63 17.2 64 64 WNW 32 52 29.84 1011 10 16 0.00 0.00
3:18 am 03:18 Cloudy with Thunderstorms 66 18.9 60 15.6 81 81 W 22 35 29.93 1014 3 5 0.01 0.25
3:21 am 03:21 Cloudy with Strong Thunderstorms 64 17.8 60 15.6 87 87 WNW 18 30 29.94 1014 2 3 0.02 0.51
3:28 am 03:28 Cloudy with Strong Thunderstorms 63 17.2 60 15.6 90 90 NW 17 28 29.92 1013 2 3 0.13 3.30
3:37 am 03:37 Cloudy with Thunderstorms 64 17.8 61 16.1 90 90 WNW 17 28 29.95 1014 7 11 0.17 4.32
3:53 am 03:53 Cloudy with Heavy Rain 63 17.2 60 15.6 90 90 NNW 21 33 29.91 1013 5 8 0.22 5.59
4:05 am 04:05 Cloudy with Light Rain 62 16.7 60 15.6 93 93 N 15 24 29.90 1012 10 16 0.01 0.25
4:53 am 04:53 Cloudy with Light Rain 61 16.1 59 15 93 93 NNE 17 28 29.88 1012 10 16 0.02 0.51
5:02 am 05:02 Cloudy with Light Rain 61 16.1 58 14.4 90 90 NNE 7 11 29.91 1013 10 16 0.00 0.00
5:31 am 05:31 Cloudy 61 16.1 58 14.4 90 90 NW 8 13 29.96 1015 10 16 0.00 0.00
5:41 am 05:41 Cloudy 60 15.6 58 14.4 93 93 NW 12 19 29.97 1015 10 16 0.00 0.00
5:53 am 05:53 Cloudy 60 15.6 58 14.4 93 93 NNW 14 22 29.96 1015 10 16 0.00 0.00
6:07 am 06:07 Cloudy 60 15.6 57 13.9 90 90 NW 13 20 30.00 1016 10 16 0.00 0.00
6:15 am 06:15 Cloudy 60 15.6 56 13.3 86 86 NNW 12 19 30.00 1016 10 16 0.00 0.00
6:28 am 06:28 Cloudy 60 15.6 56 13.3 86 86 NNW 9 15 30.01 1016 10 16 0.00 0.00
6:53 am 06:53 Cloudy 60 15.6 54 12.2 80 80 NNE 7 11 29.99 1016 10 16 0.00 0.00
6:58 am 06:58 Cloudy 60 15.6 54 12.2 80 80 NNE 7 11 30.00 1016 10 16 0.00 0.00
7:53 am 07:53 Cloudy 60 15.6 56 13.3 86 86 NW 13 20 30.05 1018 10 16 0.00 0.00
8:03 am 08:03 Cloudy 60 15.6 56 13.3 86 86 WNW 13 20 30.06 1018 10 16 0.00 0.00
8:09 am 08:09 Cloudy 60 15.6 56 13.3 86 86 WNW 13 20 30.07 1018 10 16 0.00 0.00
8:30 am 08:30 Cloudy 60 15.6 55 12.8 84 84 WNW 12 19 30.08 1019 10 16 0.00 0.00
8:53 am 08:53 Cloudy 60 15.6 54 12.2 80 80 WNW 9 15 30.08 1019 10 16 0.00 0.00
9:53 am 09:53 Mostly Cloudy 61 16.1 52 11.1 72 72 W 8 13 30.13 1020 10 16 0.00 0.00
10:53 am 10:53 Mostly Cloudy 62 16.7 51 10.6 67 67 WNW 7 11 30.14 1021 10 16 0.00 0.00
11:53 am 11:53 Mostly Cloudy 64 17.8 48 8.9 56 56 WNW 8 13 30.15 1021 10 16 0.00 0.00
12:53 pm 12:53 Partly Cloudy 67 19.4 45 7.2 45 45 NNW 9 15 30.14 1021 10 16 0.00 0.00
1:53 pm 13:53 Mostly Sunny 70 21.1 44 6.7 39 39 NW 13 20 30.14 1021 10 16 0.00 0.00
2:53 pm 14:53 Mostly Sunny 71 21.7 38 3.3 30 30 NW 13 20 30.14 1021 10 16 0.00 0.00
3:53 pm 15:53 Mostly Sunny 71 21.7 38 3.3 30 30 NNW 8 13 30.14 1021 10 16 0.00 0.00
4:53 pm 16:53 Mostly Sunny 71 21.7 39 3.9 31 31 NW 10 17 30.15 1021 10 16 0.00 0.00
5:53 pm 17:53 Mostly Sunny 69 20.6 40 4.4 35 35 WNW 10 17 30.16 1021 10 16 0.00 0.00
6:53 pm 18:53 Mostly Sunny 66 18.9 40 4.4 39 39 WNW 7 11 30.17 1022 10 16 0.00 0.00
7:53 pm 19:53 Partly Cloudy 66 18.9 40 4.4 39 39 WNW 5 7 30.17 1022 10 16 0.00 0.00
8:53 pm 20:53 Mostly Clear 61 16.1 45 7.2 56 56 W 3 6 30.19 1023 10 16 0.00 0.00
9:53 pm 21:53 Mostly Clear 60 15.6 44 6.7 56 56 Calm 30.20 1023 10 16 0.00 0.00
10:53 pm 22:53 Mostly Clear 61 16.1 43 6.1 52 52 Calm 30.21 1023 10 16 0.00 0.00
11:53 pm 23:53 Clear 57 13.9 46 7.8 67 67 Calm 30.22 1023 10 16 0.00 0.00

Powered by AerisWeather